TimeCDT,TemperatureF,Dew PointF,Humidity,Sea Level PressureIn,VisibilityMPH,Wind Direction,Wind SpeedMPH,Gust SpeedMPH,PrecipitationIn,Events,Conditions,WindDirDegrees,DateUTC
12:15 AM,79.3,73.6,82,29.92,10.0,SE,17.3,24.2,N/A,,Mostly Cloudy,140,2013-05-28 05:15:00
12:35 AM,79.3,73.8,83,29.92,10.0,SE,16.1,-,N/A,,Mostly Cloudy,140,2013-05-28 05:35:00
12:55 AM,79.2,73.6,83,29.92,10.0,SE,15.0,21.9,N/A,,Mostly Cloudy,140,2013-05-28 05:55:00
1:15 AM,79.7,73.6,81,29.91,10.0,SSE,15.0,21.9,N/A,,Mostly Cloudy,150,2013-05-28 06:15:00
1:35 AM,79.5,73.8,82,29.90,10.0,SSE,16.1,24.2,N/A,,Mostly Cloudy,150,2013-05-28 06:35:00
1:55 AM,79.3,73.9,83,29.89,10.0,SE,18.4,25.3,N/A,,Overcast,140,2013-05-28 06:55:00
2:15 AM,79.3,73.9,83,29.89,10.0,SE,16.1,-,N/A,,Overcast,140,2013-05-28 07:15:00
2:35 AM,79.3,73.8,83,29.88,10.0,SE,19.6,24.2,N/A,,Overcast,140,2013-05-28 07:35:00
2:55 AM,79.2,73.6,83,29.88,10.0,SSE,18.4,-,N/A,,Overcast,150,2013-05-28 07:55:00
3:15 AM,79.3,73.6,82,29.88,10.0,SSE,19.6,-,N/A,,Overcast,150,2013-05-28 08:15:00
3:35 AM,79.2,73.4,82,29.87,10.0,SSE,18.4,-,N/A,,Mostly Cloudy,150,2013-05-28 08:35:00
3:55 AM,79.2,73.4,82,29.87,10.0,SSE,18.4,21.9,N/A,,Mostly Cloudy,150,2013-05-28 08:55:00
4:15 AM,79.2,73.4,82,29.87,10.0,SSE,15.0,-,N/A,,Overcast,150,2013-05-28 09:15:00
4:35 AM,79.0,73.6,83,29.86,10.0,SSE,15.0,21.9,N/A,,Mostly Cloudy,150,2013-05-28 09:35:00
4:55 AM,79.0,73.4,83,29.86,10.0,SSE,17.3,26.5,N/A,,Scattered Clouds,150,2013-05-28 09:55:00
5:15 AM,78.8,73.6,84,29.85,10.0,SSE,16.1,-,N/A,,Scattered Clouds,150,2013-05-28 10:15:00
5:35 AM,79.0,73.6,83,29.85,10.0,SSE,16.1,-,N/A,,Mostly Cloudy,150,2013-05-28 10:35:00
5:55 AM,79.0,73.9,84,29.85,10.0,SSE,13.8,-,N/A,,Overcast,150,2013-05-28 10:55:00
6:15 AM,79.2,73.8,83,29.85,10.0,SSE,13.8,-,N/A,,Overcast,150,2013-05-28 11:15:00
6:35 AM,79.2,73.4,82,29.85,10.0,SSE,15.0,-,N/A,,Mostly Cloudy,160,2013-05-28 11:35:00
6:55 AM,79.2,73.4,82,29.86,10.0,SSE,15.0,-,N/A,,Mostly Cloudy,150,2013-05-28 11:55:00
7:15 AM,79.7,73.4,81,29.85,10.0,SSE,16.1,20.7,N/A,,Mostly Cloudy,160,2013-05-28 12:15:00
7:35 AM,80.1,73.8,81,29.85,10.0,SSE,18.4,24.2,N/A,,Overcast,150,2013-05-28 12:35:00
7:55 AM,80.1,73.8,81,29.85,10.0,SSE,20.7,26.5,N/A,,Mostly Cloudy,150,2013-05-28 12:55:00
8:15 AM,81.5,73.4,76,29.85,10.0,SSE,19.6,27.6,N/A,,Scattered Clouds,150,2013-05-28 13:15:00
8:35 AM,81.7,73.6,76,29.86,10.0,SSE,19.6,26.5,N/A,,Scattered Clouds,160,2013-05-28 13:35:00
8:55 AM,82.4,73.4,74,29.86,10.0,SSE,21.9,29.9,N/A,,Mostly Cloudy,160,2013-05-28 13:55:00
9:15 AM,83.5,72.9,70,29.86,10.0,SSE,21.9,-,N/A,,Mostly Cloudy,160,2013-05-28 14:15:00
9:35 AM,84.6,72.1,66,29.86,10.0,SSE,24.2,32.2,N/A,,Overcast,160,2013-05-28 14:35:00
9:55 AM,85.1,72.0,65,29.86,10.0,SSE,24.2,28.8,N/A,,Overcast,150,2013-05-28 14:55:00
10:15 AM,85.1,71.6,64,29.86,10.0,SSE,16.1,24.2,N/A,,Mostly Cloudy,160,2013-05-28 15:15:00
10:35 AM,87.3,71.6,60,29.86,10.0,South,20.7,29.9,N/A,,Mostly Cloudy,170,2013-05-28 15:35:00
10:55 AM,86.5,72.0,62,29.86,10.0,SSE,23.0,28.8,N/A,,Mostly Cloudy,150,2013-05-28 15:55:00
11:15 AM,87.3,72.0,60,29.86,10.0,SE,19.6,26.5,N/A,,Mostly Cloudy,140,2013-05-28 16:15:00
11:35 AM,87.8,71.8,59,29.86,10.0,SSE,23.0,27.6,N/A,,Mostly Cloudy,160,2013-05-28 16:35:00
11:55 AM,89.2,72.7,58,29.85,10.0,SE,24.2,29.9,N/A,,Scattered Clouds,140,2013-05-28 16:55:00
12:15 PM,89.6,72.3,57,29.85,10.0,SSE,19.6,29.9,N/A,,Mostly Cloudy,150,2013-05-28 17:15:00
12:35 PM,90.3,71.8,54,29.85,10.0,SSE,23.0,28.8,N/A,,Mostly Cloudy,160,2013-05-28 17:35:00
12:55 PM,90.1,72.1,55,29.84,10.0,SSE,21.9,27.6,N/A,,Mostly Cloudy,150,2013-05-28 17:55:00
1:15 PM,90.9,71.8,53,29.84,10.0,SE,19.6,26.5,N/A,,Scattered Clouds,140,2013-05-28 18:15:00
1:35 PM,90.9,72.3,54,29.84,10.0,SSE,23.0,32.2,N/A,,Mostly Cloudy,150,2013-05-28 18:35:00
1:55 PM,89.8,72.5,57,29.83,10.0,SSE,24.2,28.8,N/A,,Mostly Cloudy,150,2013-05-28 18:55:00
2:15 PM,90.7,72.3,55,29.83,10.0,SE,19.6,27.6,N/A,,Mostly Cloudy,140,2013-05-28 19:15:00
2:35 PM,90.5,72.3,55,29.83,10.0,SE,24.2,32.2,N/A,,Mostly Cloudy,140,2013-05-28 19:35:00
2:55 PM,91.4,72.3,53,29.82,10.0,SE,25.3,32.2,N/A,,Mostly Cloudy,130,2013-05-28 19:55:00
3:15 PM,91.2,71.8,53,29.81,10.0,SE,24.2,33.4,N/A,,Mostly Cloudy,140,2013-05-28 20:15:00
3:35 PM,90.3,71.6,54,29.80,7.0,SE,28.8,35.7,N/A,,Scattered Clouds,140,2013-05-28 20:35:00
3:55 PM,90.1,71.6,54,29.79,7.0,ESE,32.2,38.0,N/A,,Scattered Clouds,120,2013-05-28 20:55:00
4:15 PM,90.5,71.6,54,29.79,7.0,SE,28.8,36.8,N/A,,Scattered Clouds,130,2013-05-28 21:15:00
4:35 PM,89.2,71.4,56,29.79,10.0,SE,32.2,39.1,N/A,,Scattered Clouds,140,2013-05-28 21:35:00
4:55 PM,89.1,71.6,56,29.79,10.0,SE,28.8,35.7,N/A,,Scattered Clouds,140,2013-05-28 21:55:00
5:15 PM,88.2,71.6,58,29.78,10.0,SE,31.1,38.0,N/A,,Scattered Clouds,140,2013-05-28 22:15:00
5:35 PM,88.0,71.4,58,29.79,10.0,SE,27.6,34.5,N/A,,Scattered Clouds,140,2013-05-28 22:35:00
5:55 PM,87.6,71.6,59,29.79,10.0,SE,29.9,36.8,N/A,,Mostly Cloudy,140,2013-05-28 22:55:00
6:15 PM,86.4,72.0,62,29.79,10.0,SE,27.6,36.8,N/A,,Mostly Cloudy,140,2013-05-28 23:15:00
6:35 PM,85.5,71.8,63,29.79,10.0,SE,28.8,36.8,N/A,,Mostly Cloudy,140,2013-05-28 23:35:00
6:55 PM,84.6,71.6,65,29.78,10.0,SE,28.8,36.8,N/A,,Scattered Clouds,140,2013-05-28 23:55:00
7:15 PM,83.7,72.1,68,29.78,10.0,SE,28.8,36.8,N/A,,Scattered Clouds,130,2013-05-29 00:15:00
7:35 PM,83.3,72.1,69,29.78,10.0,SE,27.6,33.4,N/A,,Scattered Clouds,130,2013-05-29 00:35:00
7:55 PM,82.4,72.5,72,29.79,10.0,SE,28.8,-,N/A,,Scattered Clouds,130,2013-05-29 00:55:00
8:15 PM,81.7,72.5,74,29.80,10.0,SE,28.8,32.2,N/A,,Scattered Clouds,140,2013-05-29 01:15:00
8:35 PM,81.1,72.5,75,29.79,10.0,SE,26.5,-,N/A,,Scattered Clouds,140,2013-05-29 01:35:00
8:55 PM,80.8,72.7,76,29.79,10.0,SE,25.3,31.1,N/A,,Scattered Clouds,140,2013-05-29 01:55:00
9:15 PM,80.6,72.9,77,29.79,10.0,SE,21.9,32.2,N/A,,Clear,140,2013-05-29 02:15:00
9:35 PM,80.2,73.2,79,29.79,10.0,SE,24.2,32.2,N/A,,Scattered Clouds,140,2013-05-29 02:35:00
9:55 PM,80.2,72.9,78,29.80,10.0,SE,25.3,33.4,N/A,,Mostly Cloudy,140,2013-05-29 02:55:00
10:15 PM,79.9,73.2,80,29.80,10.0,SE,24.2,28.8,N/A,,Scattered Clouds,130,2013-05-29 03:15:00
10:35 PM,80.1,73.2,80,29.81,10.0,SE,26.5,29.9,N/A,,Mostly Cloudy,140,2013-05-29 03:35:00
10:55 PM,79.9,73.2,80,29.81,10.0,SE,20.7,28.8,N/A,,Mostly Cloudy,140,2013-05-29 03:55:00
11:15 PM,80.1,73.0,79,29.81,10.0,SE,24.2,28.8,N/A,,Mostly Cloudy,140,2013-05-29 04:15:00
11:35 PM,79.9,73.0,80,29.81,10.0,SE,23.0,29.9,N/A,,Mostly Cloudy,140,2013-05-29 04:35:00
11:55 PM,80.1,73.2,80,29.81,10.0,SE,20.7,28.8,N/A,,Mostly Cloudy,140,2013-05-29 04:55:00